#timestamp,LO_Frequency,Hit,StdDev 
1525276815.8,286047002.6,N
1525276835.6,286047004.1,N
1525276855.5,286047003.9,N
1525276875.3,286047003.2,N
1525276895.1,286047001.3,N
1525276915.9,286047002.7,N
1525276935.7,286047002.4,N
1525276955.5,286047002.7,N
1525276975.4,286046999.8,N
1525276995.2,286046999.9,N
1525277015.1,286046999.7,N
1525277016.0,286046999.7,N
1525277035.8,286047000.8,N
1525277055.6,286047000.0,N
1525277075.5,286047000.6,N
1525277095.3,286047000.2,N
1525277115.2,286047001.2,N
1525277135.9,286046998.4,N
1525277155.7,286046998.3,N
1525277175.6,286046999.4,N
1525277195.4,286046999.0,N
1525277215.2,286046999.1,N
1525277235.1,286046996.6,N
1525277236.0,286046996.6,N
1525277255.8,286046998.7,N
1525277275.7,286046997.4,N
1525277295.5,286046994.9,N
1525277315.3,286046995.0,N
1525277335.2,286046997.9,N
1525277355.0,286046997.6,N
1525277355.9,286046997.6,N
1525277375.7,286046997.8,N
1525277395.6,286046997.6,N
1525277415.4,286046996.8,N
1525277435.3,286046996.6,N
1525277455.1,286046999.1,N
1525277456.0,286046999.1,N
1525277475.8,286046998.8,N
1525277495.7,286046998.3,N
1525277515.5,286046998.8,N
1525277535.4,286046998.8,N
1525277555.2,286046998.4,N
1525277575.0,286046996.7,N
1525277575.9,286046996.7,N
1525277595.8,286046997.4,N
1525277615.6,286046996.5,N
1525277635.4,286046999.3,N
1525277655.3,286046999.4,N
1525277675.1,286046996.6,N
1525277695.9,286046996.9,N
1525277715.7,286046996.9,N
1525277735.5,286046996.7,N
1525277755.4,286046998.0,N
1525277775.2,286046995.2,Y
1525277795.0,286046999.3,P
1525277795.9,286046999.3,N
1525277815.8,286046998.3,N
1525277835.6,286046998.7,N
1525277855.5,286046999.0,N
1525277875.3,286046996.6,Y
1525277895.1,286046998.7,P
1525277915.9,286046998.8,P
1525277935.7,286046998.8,P
1525277955.6,286046998.3,Y
1525277975.4,286046998.1,P
1525277995.2,286046998.2,P
1525278015.1,286046998.7,P
1525278016.0,286046998.7,Y
1525278035.8,286047000.0,P
1525278055.7,286047002.3,N
1525278075.5,286047002.4,N
1525278095.3,286047001.8,N
1525278115.2,286047001.4,N
1525278135.9,286047001.9,N
1525278155.7,286047001.7,N
1525278175.6,286047001.7,N
1525278195.4,286047003.9,Y
1525278215.3,286047002.5,P
1525278235.1,286047002.3,P
1525278255.8,286047002.5,P
1525278275.7,286047002.3,Y
1525278295.5,286046998.6,P
1525278315.4,286047000.6,N
1525278335.2,286046998.6,N
1525278355.0,286046999.4,N
1525278355.9,286046999.4,N
1525278375.8,286046999.4,N
1525278395.6,286046996.8,N
1525278415.4,286046997.9,N
1525278435.3,286046996.8,N
1525278455.1,286046997.1,N
1525278475.9,286046996.7,N
1525278495.7,286046996.9,N
1525278515.5,286046997.0,N
1525278535.4,286046995.0,Y
1525278555.2,286046999.5,P
1525278575.1,286046999.1,N
1525278576.0,286046999.1,N
1525278595.8,286046996.7,Y
1525278615.6,286046999.0,P
1525278635.5,286046998.3,P
1525278655.3,286046999.4,N
1525278675.1,286046996.5,Y
1525278695.9,286047000.8,P
1525278715.7,286047000.0,N
1525278735.6,286047001.1,N
1525278755.4,286047001.1,N
1525278775.2,286047001.1,N
1525278795.1,286047000.8,N
1525278796.0,286047000.8,N
1525278815.8,286047000.9,N
1525278835.7,286047000.6,N
1525278855.5,286046998.1,Y
1525278875.3,286047001.1,P
1525278895.2,286047000.7,N
1525278915.9,286047000.8,P
1525278935.7,286047000.2,N
1525278955.6,286046999.8,N
1525278975.4,286047000.8,N
1525278995.3,286046998.2,Y
1525279015.1,286046999.0,P
1525279016.0,286046999.0,N
1525279035.8,286046998.9,N
1525279055.7,286047001.0,N
1525279075.5,286047000.4,N
1525279095.4,286047000.9,N
1525279115.2,286046998.6,N
1525279135.0,286047000.8,N
1525279135.9,286047000.8,N
1525279155.8,286046998.1,N
1525279175.6,286046999.0,N
1525279195.4,286046998.9,N
1525279215.3,286046999.2,N
1525279235.1,286046998.8,N
1525279255.9,286047000.8,N
1525279275.7,286047000.7,N
1525279295.5,286047000.5,N
1525279315.4,286047000.4,N
1525279335.2,286046998.8,N
1525279355.0,286047000.5,N
1525279355.9,286047000.5,N
1525279375.8,286047000.9,N
1525279395.6,286046999.5,N
1525279415.5,286046999.0,N
1525279435.3,286046996.5,Y
1525279455.1,286046999.3,P
1525279475.9,286046999.2,P
1525279495.7,286046996.8,P
1525279515.6,286046997.0,N
1525279535.4,286046998.9,N
1525279555.2,286046999.4,N
1525279575.1,286046999.0,N
1525279576.0,286046999.0,N
1525279595.8,286047000.6,N
1525279615.7,286046998.4,N
1525279635.5,286047001.1,N
1525279655.3,286047001.0,N
1525279675.2,286047000.9,N
1525279695.0,286047000.6,N
1525279695.9,286047000.6,N
1525279715.7,286047000.5,N
1525279735.6,286047000.0,N
1525279755.4,286047000.7,N
1525279775.3,286047001.0,N
1525279795.1,286046998.5,N
1525279815.8,286046999.4,N
1525279835.7,286046999.4,N
1525279855.5,286046998.9,N
1525279875.4,286046999.3,N
1525279895.2,286046999.1,N
1525279915.0,286046999.5,N
1525279915.9,286046999.5,N
1525279935.8,286046996.8,N
1525279955.6,286046997.3,N
1525279975.4,286046999.1,N
1525279995.3,286046999.5,N
1525280015.1,286046997.7,N
1525280035.9,286046997.0,N
1525280055.7,286046999.1,N
1525280075.5,286046998.5,N
1525280095.4,286047000.3,N
1525280115.2,286047001.0,N
1525280135.1,286047000.8,N
1525280136.0,286047000.8,N
1525280155.8,286046998.1,N
1525280175.6,286047000.0,N
1525280195.5,286047000.2,N
1525280215.3,286047000.3,N
1525280235.1,286047000.3,N
1525280255.9,286046999.9,N
1525280275.7,286047002.3,N
1525280295.6,286047003.9,Y
1525280315.4,286047001.5,P
1525280335.2,286047001.7,N
1525280355.1,286047001.3,N
1525280356.0,286047001.3,N
1525280375.8,286047004.1,Y
1525280395.7,286047000.0,P
